{"data":{"norad_id":58765,"intl_designator":"2024-011A","name":"STARLINK-31127","alt_names":[],"object_type":"PAYLOAD","status":"ACTIVE","operator":null,"country":"US","launch_date":"2024-01-14","launch_site_code":"AFWTR","launch_vehicle":null,"mission":null,"orbit_class":"UNKNOWN","rcs_meters":null,"size_class":null,"mass_kg":null,"dimensions":null,"purposes":["comms"],"wikipedia_slug":null,"has_3d_model":false,"image_url":null,"decayed_at":null,"tle_current":{"epoch":"2026-05-24T22:29:28.636800Z","epoch_age_seconds":76988,"freshness":"FRESH","line1":"1 58765U 24011A   26144.93713700 -.00000969  00000+0 -20605-4 0  9998","line2":"2 58765  53.1617  19.5502 0001255  84.6331 275.4813 15.30204759131940","mean_motion":15.30204759,"eccentricity":0.0001255,"inclination_deg":53.1617,"raan_deg":19.5502,"arg_perigee_deg":84.6331,"mean_anomaly_deg":275.4813,"bstar":-2.0605e-5,"rev_number":13194,"period_min":94.105053034932,"perigee_km":474.34076603854,"apogee_km":476.06095384139,"semimajor_km":6853.33785994,"source":"CELESTRAK","updated_at":"2026-05-25T13:38:18.742929Z"}}}